DW2258 Weather Reports


time (UTC)temp
C
wind
direction
speed
KPH
gust
KPH
rain 1hr
cm
rain 24hr
cm
rain mn
cm
humidity
%
barometer
mb
20260504231649 7 211 9.7 19.3 0.00 0.03 0.00 86 1006.5
20260504230149 7 235 9.7 19.3 0.00 0.03 0.00 84 1006.2
20260504224628 8 229 9.7 16.1 0.00 0.03 0.00 83 1006.2
20260504223130 8 227 12.9 25.7 0.00 0.03 0.00 82 1006.2
20260504221633 8 171 8.0 25.7 0.00 0.03 0.00 81 1006.0
20260504220133 8 218 11.3 22.5 0.00 0.03 0.00 81 1005.8
20260504214654 9 206 12.9 29.0 0.00 0.03 0.00 80 1005.7
20260504213134 9 195 12.9 30.6 0.00 0.03 0.00 79 1005.8
20260504211635 9 242 14.5 25.7 0.00 0.03 0.00 79 1005.6
20260504210138 9 210 12.9 24.1 0.00 0.03 0.00 80 1005.6
20260504204700 9 233 12.9 19.3 0.00 0.08 0.00 79 1005.6
20260504203159 9 214 9.7 17.7 0.00 0.08 0.00 80 1005.4
20260504201638 9 250 12.9 19.3 0.00 0.08 0.00 78 1005.6
20260504200140 10 220 9.7 22.5 0.00 0.08 0.00 76 1005.5
20260504194643 10 213 14.5 24.1 0.00 0.10 0.00 77 1005.4
20260504193142 9 219 14.5 22.5 0.00 0.10 0.00 79 1005.7
20260504191642 8 239 12.9 24.1 0.00 0.10 0.00 80 1005.9
20260504190204 8 234 17.7 24.1 0.00 0.10 0.00 79 1006.2
20260504184627 8 247 17.7 25.7 0.00 0.18 0.00 81 1006.3
20260504183206 7 233 16.1 25.7 0.00 0.18 0.00 84 1006.3
20260504181626 7 245 22.5 37.0 0.00 0.18 0.00 84 1006.0
20260504180206 7 230 17.7 27.4 0.00 0.18 0.00 85 1005.8
20260504174645 7 228 17.7 30.6 0.00 0.30 0.00 84 1005.9
20260504173128 7 226 17.7 30.6 0.00 0.30 0.00 83 1005.8
20260504171627 8 241 14.5 25.7 0.00 0.30 0.00 82 1005.6
20260504170127 7 218 17.7 35.4 0.00 0.30 0.00 83 1005.6
20260504160130 8 207 11.3 17.7 0.00 0.43 0.00 81 1006.0
20260504150152 7 246 14.5 29.0 0.00 0.51 0.00 82 1007.0
20260504140135 7 229 16.1 29.0 0.00 0.66 0.00 79 1007.3
20260504130138 7 237 16.1 29.0 0.00 0.81 0.00 77 1007.5
20260504120202 6 268 20.9 30.6 0.00 0.94 0.00 79 1007.8
20260504110147 5 253 22.5 33.8 0.00 1.09 0.00 81 1007.6
20260504100151 5 253 20.9 29.0 0.00 1.22 0.00 81 1007.1
20260504090133 5 250 20.9 29.0 0.00 1.32 0.00 77 1006.7
20260504081657 7 311 25.7 41.8 0.00 1.45 0.00 67 1006.2
20260504080139 6 264 27.4 41.8 0.00 1.45 0.00 69 1006.1
20260504070143 5 266 24.1 35.4 0.00 1.52 0.00 73 1006.0
20260504060143 5 298 22.5 38.6 0.00 1.57 0.00 75 1005.2
20260504050127 5 291 19.3 30.6 0.00 1.60 0.00 77 1004.9
20260504044646 5 320 20.9 32.2 0.00 1.60 1.60 76 1004.9
20260504043145 5 302 16.1 32.2 0.00 1.60 1.60 77 1004.7
20260504041627 5 323 22.5 33.8 0.00 1.60 1.60 75 1004.6
20260504040127 5 329 22.5 33.8 0.00 1.60 1.60 76 1004.4
20260504034633 5 304 19.3 38.6 0.00 1.60 1.60 77 1004.3
20260504033132 5 293 20.9 32.2 0.00 1.60 1.60 78 1004.3
20260504031632 6 288 22.5 35.4 0.00 1.60 1.60 78 1004.0
20260504030131 6 310 19.3 35.4 0.03 1.60 1.60 79 1003.9
20260504024636 6 307 19.3 32.2 0.03 1.60 1.60 79 1003.7
20260504023136 6 316 17.7 30.6 0.03 1.60 1.60 80 1003.7
20260504021635 6 258 17.7 38.6 0.03 1.60 1.60 80 1003.6
20260504020137 6 294 17.7 29.0 0.00 1.57 1.57 87 1003.5
20260504014640 6 280 14.5 27.4 0.00 1.57 1.57 91 1003.4
20260504013140 6 290 12.9 20.9 0.00 1.57 1.57 91 1003.3
20260504011638 6 287 14.5 22.5 0.00 1.57 1.57 91 1003.2
20260504010139 6 283 14.5 27.4 0.00 1.57 1.57 91 1003.0
20260504004640 6 297 16.1 25.7 0.00 1.57 1.57 91 1002.6
20260504003144 6 274 16.1 27.4 0.00 1.57 1.57 91 1002.4
20260504001645 6 299 17.7 27.4 0.00 1.57 1.57 91 1002.2
20260504000206 6 315 14.5 27.4 0.00 1.57 1.57 91 1002.0
20260503234705 6 312 16.1 29.0 0.00 1.57 1.57 91 1001.7
20260503233128 6 326 12.9 32.2 0.00 1.57 1.57 91 1001.5